This is the latest recevied weather packets stored in our database for station/object F5PQL-4. If no packets are shown the sender has not sent any weather packets the latest 10 day(s).
| Time | Temp. | Humidity | Pressure | Rain* | Wind** | Luminosity | Snow |
|---|---|---|---|---|---|---|---|
| 1778008892 | 17.22° C | 62% | 1010.6 hPa | - | - | - | - |
| 1778007991 | 17.22° C | 62% | 1010.1 hPa | - | - | - | - |
| 1778007090 | 17.78° C | 59% | 1009.8 hPa | - | - | - | - |
| 1778006190 | 17.78° C | 58% | 1009.9 hPa | - | - | - | - |
| 1778005290 | 18.33° C | 57% | 1009.9 hPa | - | - | - | - |
| 1778004404 | 18.89° C | 56% | 1009.9 hPa | - | - | - | - |
| 1778003504 | 20° C | 53% | 1009.9 hPa | - | - | - | - |
| 1778002604 | 22.22° C | 50% | 1009.7 hPa | - | - | - | - |
| 1778001704 | 23.33° C | 51% | 1009.8 hPa | - | - | - | - |
| 1778000804 | 22.22° C | 55% | 1009.8 hPa | - | - | - | - |
| 1777999904 | 21.67° C | 57% | 1009.9 hPa | - | - | - | - |
| 1777999004 | 20° C | 60% | 1010.3 hPa | - | - | - | - |
| 1777998104 | 20° C | 59% | 1010.5 hPa | - | - | - | - |
| 1777997204 | 19.44° C | 59% | 1010.6 hPa | - | - | - | - |
| 1777996303 | 21.11° C | 56% | 1010.4 hPa | - | - | - | - |
| 1777995403 | 24.44° C | 50% | 1010.3 hPa | - | - | - | - |
| 1777994503 | 22.22° C | 60% | 1010.5 hPa | - | - | - | - |
| 1777993603 | 17.78° C | 69% | 1010.5 hPa | - | - | - | - |
| 1777992703 | 18.33° C | 68% | 1010.6 hPa | - | - | - | - |
| 1777991803 | 18.89° C | 66% | 1010.6 hPa | - | - | - | - |
| 1777990903 | 18.89° C | 65% | 1010.7 hPa | - | - | - | - |
| 1777990002 | 19.44° C | 63% | 1010.7 hPa | - | - | - | - |
| 1777989102 | 18.89° C | 63% | 1010.6 hPa | - | - | - | - |
| 1777988202 | 19.44° C | 61% | 1010.5 hPa | - | - | - | - |
| 1777987302 | 19.44° C | 62% | 1010.8 hPa | - | - | - | - |
* Rain since midnight (hover to see other rain measurements)
** Current wind speed in m/s (hover to see current wind gust speed)